BREEZE-M R/B, 40259

Orbit data source: Space-Track

BREEZE-M R/B, 40259 is space debris in GEO originally from a launch on Sat, 27 Sep 2014 UTC launched from the Tyuratam Missile And Space Complex (TTMTR). Debris objects in space refer to the collection of defunct objects orbiting the Earth. Examples of debris include non-operational satellites, rocket bodies, and fragments generated from explosions, collisions, or faulty payload assembly.

Not visible in the next 10 days
Identifier
40259, 2014-058B
Orbit
GEO
Last TLE update
15 hours ago
Origin
Manufacturer
Khrunichev
Mission
Spacecraft
Bus & Motor
BRIZ, Unknown motor
Mass
~1,600 kg wet, 1,600 kg dry
Launch date (UTC)
2014-09-27 (11 years ago)
Launch vehicle
Unknown
Launch site
Tyuratam Missile And Space Complex (TTMTR)
Object type
Payload
Rocket body
Debris
Shape & HBR
Cyl, 4 m
Radar Cross Section
14.451 m², Large (>1 m²)

Expand to show TLE details & history

TLE from 15 hours ago
0 BREEZE-M R/B
1 40259U 14058B   25129.14742835 -.00000188  00000-0  00000-0 0  9999
2 40259   9.4270  63.4626 0640309 189.7897 168.8089  0.91687601 35525
Epoch: 2025-05-09T03:32Z
Definitive object data (Epoch: 2025-05-09T03:32:17.809Z)
Latitude
-0.00001°
Longitude
143.07477°
Altitude
41,206.744 km
Speed
2.801 km/s
True Right ascension
04h 13m 25s
True Declination
0° 00' 00"
Sunlit
Object was in daylight at TLE epoch
Visualization TLE readout
Latitude
-4.05184°
Longitude
-11.66998°
Altitude
35,601.331 km
Speed
3.176 km/s
Apparent Right ascension
17h 35m 35s
Apparent Declination
-8° 50' 30"
Sunlit
Object is in daylight
Visualization observer readout
Local Sidereal Time
02:37:03
Azimuth
295.647° NW
Elevation
-39.639°
Doppler factor
1
Orbital elements
Apogee altitude
41,245.785 km
Perigee altitude
35,513.992 km
Semi-major axis
44,758.026 km
Eccentricity
0.0640309
Inclination
9.427°
RAAN
63.4626°
Arg. of periapsis
189.7897°
True anomaly
170.1289°
Mean anomaly
168.8089°
Eccentric anomaly
169.4788°
Mean motion
0.22921 °/min
BSTAR
Unknown
Orbital period
1570.6 mins
Loading historical data...
40259 neighbors
Loading maneuver chart data...
Loading SW <> Apogee altitude chart data...
Loading historical data...
Loading historical data...
Loading historical data...
Loading historical data...
Loading historical data...
Loading historical data...
Loading historical data...
Other satellites on launch #58 in the year 2014 (2014-09-27 UTC)

BREEZE-M R/B Visibility forecast

Observer location: undefined°, undefined°

BREEZE-M R/B is not visible in the next 10 days
Span
Click to sort rows by Start time (UTC) header in descending order
Start Az.
Max El. time (UTC)
Max El. Az.
Max El.
End time (UTC)
End Az.
|